Regional Weather Roundup
Issued by NWS Newport/Morehead, NC

Current Version | Previous Version | Graphics & Text | Print | Product List | Glossary Off
Versions: 1 2 3 4 5 6 7 8 9 10 11 12 13 14 15 16 17 18 19 20 21 22 23 24 25 26 27 28 29 30 31 32 33 34 35 36 37 38 39 40 41 42 43 44 45 46 47 48 49 50

000
ASUS42 KMHX 091925
RWRMHX
WEATHER ROUNDUP FOR EASTERN NORTH CAROLINA
NATIONAL WEATHER SERVICE NEWPORT/MOREHEAD CITY NC
200 PM EST TUE FEB 09 2016

NOTE: "FAIR" INDICATES FEW OR NO CLOUDS BELOW 12,000 FEET
WITH NO SIGNIFICANT WEATHER AND/OR OBSTRUCTIONS TO VISIBILITY

NCZ015>017-031-032-045>047-102-103-092000-
NORTH COAST

CITY           SKY/WX    TMP DP  RH WIND       PRES   REMARKS
EDENTON        CLOUDY    48  30  49 W13G18    29.59F
ELIZABETH CITY CLOUDY    48  29  47 W14       29.57F
KITTY HAWK     PTCLDY    50  32  50 W14G20    29.57S
MANTEO         MOSUNNY   48  32  53 W20G25    29.58F

$$

NCZ045>047-081-094-103-104-092000-
CENTRAL COAST

CITY           SKY/WX    TMP DP  RH WIND       PRES   REMARKS
FRISCO         PTSUNNY   47  34  60 W9G18     29.62F
SWANQUARTER      N/A     48 N/A N/A SW1G15    29.59S

$$

NCZ095-097-098-100-101-092000-
SOUTHERN COAST

CITY           SKY/WX    TMP DP  RH WIND       PRES   REMARKS
BEAUFORT       PTSUNNY   47  35  63 SW20G25   29.63F
CEDAR ISLAND     N/A     46 N/A N/A W8G16     29.68R
JACKSONVILLE   PTSUNNY   47  26  44 W17G23    29.64S
PINEY ISLAND   CLOUDY   N/A N/A N/A W16       29.61F
WILMINGTON     MOSUNNY   48  26  42 W20G28    29.67F


$$

NCZ011>013-027>030-043-044-078>080-089-090>093-098-092000-
COASTAL PLAIN

CITY           SKY/WX    TMP DP  RH WIND       PRES   REMARKS
AHOSKIE        PTSUNNY   45  31  59 CALM      29.59R
CLINTON        MOSUNNY   45  27  49 W10G20    29.66S
ELIZABETHTOWN  PTSUNNY   44  24  43 W15G25    29.68R
GOLDSBORO      CLOUDY    46  32  57 SW20      29.60F
GREENVILLE     LGT RAIN  39  36  87 CALM      29.65R
HAVELOCK       CLOUDY    47  32  56 MISG      29.63F
KENANSVILLE    CLOUDY    44  26  49 W8G17     29.66R
KINSTON        MOSUNNY   48  32  53 SW17G24   29.62F
NEW BERN       CLOUDY    46  31  55 W13G24    29.63F
RICHLANDS      CLOUDY    46  27  46 SW16G24   29.65R
ROCKY MOUNT    LGT RAIN  38  33  82 W7G18     29.61F
WASHINGTON     DRIZZLE   46  33  60 W10       29.60S
WHITEVILLE     PTSUNNY   44  24  45 W10G21    29.69S

$$

AMZ130-135-150-152-154-156-158-170-250-252-270-ANZ085-086-088-633-658-670-092000-
MARINE OBSERVATIONS

STATION/POSITION TIME  TEMP    WIND        PRES    WAVE   SWELL
                       AIR SEA DIR/SP/G            HT/PER HT/PER
                 (UTC) (F)     (DEG/KT/KT) (MB)    (FT/S) (FT/S)
CHESAPEAKE LIGHT 1900   45     310/  6/  6 1001.5
64 E VA BEACH    1850   44 51  280/ 16/ 21 1000.9   11/14  10/14
DUCK             1900   46     240/ 18/ 22 1000.9
2 E DUCK         1911      45                N/A     8/14   7/14
OREGON INLET     1900   47 45  270/ 12/ 15 1001.4
13E OREGON INLT  1900      47                N/A    10/15  10/15
HATTERAS CG      1900   46 52  260/ 14/ 18 1002.3
DIAMOND BUOY     1850   47 73  290/ 17/ 27 1002.7   11/14  10/14
CAPE LOOKOUT     NOT AVBL
BEAUFORT LAB     1900   47 47  240/  9/ 14 1002.4
30 SE NEW RVR IN 1908   47 60              1004.2
30 SE NEW RVR IN 1825      60                N/A     9/ 7   3/14
27 SE WRIGHTSVLE 1908   47 60  270/ 23/ 33 1004.3
5 SE WRIGHTSVLE  1808   45 51  270/ 17/ 23 1004.9
225 S CAPE HAT   1850   55 69  270/ 25/ 33   N/A    15/11  11/11
41 SE CHARLESTON 1850   47 65  250/ 25/ 33 1007.5    8/ 7   2/14

$$



USA.gov is the U.S. government's official web portal to all federal, state and local government web resources and services.